千帆星座-98(QIANFAN-98)

导读

QIANFAN-98(千帆-98)是中国研制发射的低轨卫星,于2025年10月17日成功进入预定轨道,属于中国“千帆星座”卫星互联网巨型星座组网卫星序列。千帆星座计划由超15000颗卫星组成,旨在实现全球互联网覆盖,对标星链星座,QIANFAN-98的成功入轨进一步完善了千帆星座的网络布局,将为全球万物互联提供低延迟、高可靠的宽带通信支持,推动卫星物联网在智慧农业等领域商业化应用,助力国产低轨卫星互联网建设加速落地。

Basic Information
目录编号:
66040
目录名称:
QIANFAN-98
国际标识:
2025-233H
轨道中心:
EARTH
卫星名称:
千帆星座-98
卫星全名:
千帆星座-98(QIANFAN-98)
卫星状态:
在轨 (已飞行329 天)
发射日期:
2025-10-17 UTC
国别 :
中国 (CN)
星等 :
--
This satellite is enrolled in the Space Conjunction Data Service (SCDS) and the current flight risk assessment level is: High Risk
Orbit Information
数据来源 国际轨道数据 AOE轨道数据
星历时间 2026-09-11T02:40:28+0800
23小时前
查看轨道信息
2026-09-10T07:00:00+0800
1天前
查看轨道信息
半长轴 7446.616km 7446.614km
偏心率 0.0001476 0.0001433
轨道倾角 89.003° 89.005°
近地点辐角 105.217° 102.229°
升交点赤经 34.257° 34.340°
平近点角 254.915° 233.169°
近地点 1067.379km 1067.409km
远地点 1069.579km 1069.545km
周期 106.586分钟 106.585分钟
每日圈数 13.51028 13.510286
Detailed Information
卫星平台:
98
覆盖范围:
全球
运营商:
上海垣信卫星科技有限公司
运营商所在国:
中国
使用方式:
暂无
Satellite Introduction
千帆星座,也被称为“G60星链”计划,是中国版“星链”的重要组成部分,旨在打造一个由1.4万多颗低轨宽频多媒体卫星构成的庞大星座。千帆星座计划由上海垣信卫星科技有限公司负责实施,于2023年启动建设。该项目是我国第二个低轨卫星大星座,旨在通过构建庞大的卫星网络,为全球用户提供高质量的通信和宽带互联网服务。
2D Orbit Map
3D Orbit Map
Orbit Altitude Analysis Chart
Orbit Inclination Analysis Chart
Orbit Comprehensive Analysis Chart
View Comprehensive Chart
Conjunction Data List
Event ID Objects TCA Miss Dist (km) Collision Risk Probability Collision Risk Index (CRI) Action
CDM_260912-224804-478606-604027
2026-09-12T
22:48:47+0000
0.419 km
远距离
2.945E-4 高风险 0.84
CDM_260904-110806-604006-941024
2026-09-04T
11:08:02+0000
0.771 km
远距离
5.799696E-5 中风险 0.7
CDM_260904-125406-604006-941023
2026-09-04T
12:54:41+0000
0.950 km
远距离
2.929856E-5 中风险 0.64
CDM_260904-144106-604006-941023
2026-09-04T
14:41:19+0000
1.129 km
极远距离
1.608325E-5 中风险 0.59
CDM_260904-162706-604006-941023
2026-09-04T
16:27:58+0000
1.309 km
极远距离
9.614983E-6 低风险 0.55
CDM_260904-101406-604006-941024
2026-09-04T
10:14:42+0000
1.316 km
极远距离
9.476871E-6 低风险 0.55
CDM_260904-181406-604006-941023
2026-09-04T
18:14:37+0000
1.490 km
极远距离
6.22695E-6 低风险 0.51
CDM_260904-120106-604006-941023
2026-09-04T
12:01:21+0000
1.497 km
极远距离
6.140934E-6 低风险 0.51
CDM_260904-200106-604006-941023
2026-09-04T
20:01:16+0000
1.670 km
极远距离
4.334647E-6 低风险 0.48
CDM_260904-134806-604006-941023
2026-09-04T
13:48:00+0000
1.678 km
极远距离
4.276475E-6 低风险 0.48
Miss Distance Evolution Trend with All Objects
Collision Probability Evolution Trend with All Objects